Regional Weather Roundup
Issued by NWS

Home | Current Version | Previous Version | Text Only | Print | Product List | Glossary On
Versions: 1 2 3 4 5 6 7 8 9 10 11 12 13 14 15 16 17 18 19 20 21 22 23 24 25 26 27 28
000
ASUS44 KLIX 252313
RWRLA
LOUISIANA WEATHER ROUNDUP
NATIONAL WEATHER SERVICE NEW ORLEANS LA
600 PM CDT TUE JUL 25 2017

NOTE: "FAIR" INDICATES FEW OR NO CLOUDS BELOW 12,000 FEET WITH NO
      SIGNIFICANT WEATHER AND/OR OBSTRUCTIONS TO VISIBILITY.
      SKY/WX - SKY CONDITION AND SIGNIFICANT WEATHER.
      TMP - AIR TEMPERATURE.    DP   - DEWPOINT TEMPERATURE.
      RH  - RELATIVE HUMIDITY.  PRES - PRESSURE.
      HX  - HEAT INDEX.         WCI  - WIND CHILL INDEX.

*  THESE STATIONS ARE NOT NWS OR FAA STATIONS AND ARE NOT UNDER
   NWS QUALITY CONTROL.

LAZ040-048-061>063-065-066-069-260000-
SOUTHEAST LOUISIANA

CITY           SKY/WX    TMP DP  RH WIND       PRES   REMARKS
N.O. INTL ARPT PTSUNNY   89  73  59 N8        30.09R HX  97
N.O. LAKEFRONT MOSUNNY   86  76  71 N6        30.09S HX  96
N.O. DOWNTOWN*   N/A     90  73  57 NE7         N/A  HX  98
RESERVE*       FAIR      89  75  62 NE5       30.09S HX  99
SLIDELL        CLOUDY    86  72  62 N3        30.09S
BATON ROUGE    CLOUDY    88  72  58 NW3       30.09S
BOOTHVILLE     SUNNY     86  75  69 NE5       30.09F HX  95
BELLE CHASSE   NOT AVBL
BOGALUSA*      FAIR      85  71  63 NE5       30.11R
GALLIANO*      PTCLDY    89  72  56 S6        30.08S HX  96
NEW ROADS*     FAIR      88  73  60 CALM      30.10S HX  96
GONZALES*      FAIR      88  73  61 N5        30.08S HX  96
HAMMOND*       PTSUNNY   88  72  58 W5        30.09S
HOUMA*         NOT AVBL
PORT FOURCHON* CLEAR     88  70  55 SW7       30.08F

$$

LAZ041-044-053-054-260000-
SOUTHWEST LOUISIANA

CITY           SKY/WX    TMP DP  RH WIND       PRES   REMARKS
LAKE CHARLES   CLOUDY    86  77  74 S5        30.08S HX  97
LAFAYETTE      CLOUDY    86  80  82 NE5       30.08F HX 101
PATTERSON      SUNNY     90  74  59 SW7       30.09S HX  99
SALT POINT       N/A     91  70  49 VRB3      30.07F HX  96
NEW IBERIA     CLOUDY    88  77  69 CALM      30.08F HX 100
CHENAULT AIRPK PTSUNNY   86  77  74 S6        30.08F HX  97

$$

LAZ027-028-260000-
CENTRAL LOUISIANA

CITY           SKY/WX    TMP DP  RH WIND       PRES   REMARKS
FORT POLK      SUNNY     89  73  58 S3        30.07S HX  97
ALEXANDRIA INT SUNNY     89  73  59 SW5       30.06S HX  97
ALEXANDRIA     SUNNY     90  75  61 S3        30.08S HX 100

$$

LAZ001-002-260000-
NORTHWEST LOUISIANA

CITY           SKY/WX    TMP DP  RH WIND       PRES   REMARKS
SHREVEPORT     SUNNY     93  69  45 S12       30.05F HX  98
BARKSDALE AFB  SUNNY     94  65  38 S10       30.05F HX  97
DTN SHREVEPORT SUNNY     94  68  42 S12       30.05F HX  98

$$

LAZ014-016-260000-
NORTHEAST LOUISIANA

CITY           SKY/WX    TMP DP  RH WIND       PRES   REMARKS
MONROE         SUNNY     94  67  41 SW6       30.06F HX  97
TALLULAH       CLOUDY    75  73  93 S5        30.07F

$$





USA.gov is the U.S. government's official web portal to all federal, state and local government web resources and services.